Theta_e
346 347 347 347 348 348 346 345 345 346 346 347 348 348 347 344 341 337 336 335 334 334 334 332 332 333 331 331 332 329 327 325 324 326 326 331 333 335 336 337 336 338 337
344 347 347 348 348 347 347 347 347 345 345 345 347 348 347 345 342 339 336 336 334 334 334 334 332 332 332 332 331 331 330 328 327 328 328 329 331 333 334 334 333 333 336
344 345 346 347 347 347 347 349 348 347 345 344 346 346 346 345 343 341 340 338 336 335 335 334 333 333 332 331 330 331 329 329 330 327 328 329 330 330 330 331 332 332 330
343 344 344 346 347 347 349 350 350 349 346 344 344 346 346 346 345 343 341 339 338 337 336 335 334 333 333 332 332 332 332 331 330 329 328 328 328 329 327 326 326 327 327
343 343 344 346 346 347 347 349 350 351 350 347 345 344 345 345 344 343 343 341 339 338 338 337 336 336 335 334 334 333 332 331 330 327 325 324 322 323 324 326 323 324 328
343 342 345 346 347 346 346 346 347 349 351 349 348 346 344 345 337 335 341 342 340 339 337 336 338 337 336 332 332 331 334 333 331 330 327 328 328 326 325 321 324 323 321
343 344 345 346 346 347 347 346 345 345 349 349 349 348 345 346 332 332 336 343 341 340 339 335 335 338 336 338 331 330 330 329 332 333 328 328 328 329 326 320 322 323 322
343 343 345 346 346 348 348 347 347 347 346 346 348 348 348 347 329 328 334 345 342 341 339 336 338 336 336 337 337 336 335 335 334 333 331 328 329 328 329 326 326 325 323
343 344 346 347 346 347 348 348 349 349 348 347 348 348 346 346 325 325 330 343 341 339 338 338 337 336 330 327 335 335 334 332 327 325 326 325 325 325 328 327 323 321 317
344 345 348 349 348 347 348 349 351 352 351 351 350 349 342 347 323 321 330 342 339 339 339 337 329 336 322 321 335 334 332 328 329 329 330 326 325 328 324 327 326 320 318
343 347 349 350 350 351 350 351 352 352 353 352 351 351 348 345 340 318 323 342 340 338 336 334 335 321 316 314 322 335 331 331 329 331 330 328 324 323 321 320 324 321 318
343 345 347 350 351 352 352 352 352 352 352 352 351 349 347 347 326 315 319 325 329 336 334 334 332 314 310 310 318 322 318 323 327 326 324 322 321 318 319 318 319 320 321
341 342 347 351 351 353 352 352 352 353 351 350 349 347 346 346 328 316 315 319 323 332 332 328 316 308 307 310 314 315 317 325 324 322 321 319 316 318 318 316 315 314 313
336 337 340 342 346 351 353 354 353 352 351 350 348 346 342 338 333 325 326 326 321 327 321 322 319 317 316 319 317 318 325 325 323 321 318 316 316 316 315 313 312 309 308
337 336 339 340 327 322 318 322 330 323 340 339 339 338 334 332 325 315 318 329 331 326 323 323 321 320 319 320 320 321 321 321 319 317 315 315 316 314 312 310 309 307 306
342 340 333 328 327 329 325 321 307 310 308 308 311 322 326 316 308 309 306 306 305 308 325 324 322 321 320 318 317 315 317 318 319 317 316 316 316 315 312 308 306 305 303
332 330 329 328 331 331 331 326 321 316 306 308 309 311 312 307 312 307 301 303 306 313 325 324 322 318 317 316 317 318 318 319 318 316 316 316 315 311 308 306 304 303 303
330 319 331 332 331 329 327 327 326 324 321 318 303 312 308 307 299 298 300 306 317 319 325 321 319 317 317 317 317 317 317 316 316 316 315 314 310 307 305 304 302 303 302
332 331 331 331 331 327 328 329 329 327 323 312 309 304 304 298 299 301 306 324 323 320 319 319 319 318 318 319 318 317 316 314 312 310 307 305 305 305 303 302 302 299 300
332 323 326 328 326 325 325 323 321 319 316 317 316 309 307 310 315 319 318 320 319 316 316 315 314 315 315 314 313 311 308 306 305 305 305 305 304 303 302 302 302 303 303
329 328 323 327 326 325 324 322 320 322 321 320 316 314 311 321 319 315 314 316 315 313 311 312 312 312 311 310 308 307 307 306 305 305 304 303 302 302 303 303 303 302 302
329 329 327 325 325 324 322 321 320 320 320 317 312 310 304 316 315 313 313 313 314 313 313 313 311 311 310 309 308 307 306 305 304 304 303 302 302 303 303 303 303 302 301
326 327 326 326 325 318 320 318 317 318 318 317 314 312 315 315 315 313 312 312 311 311 310 311 311 310 309 308 308 307 305 304 304 304 302 302 302 303 302 302 302 301 301
325 325 324 324 324 324 322 318 317 311 317 316 314 313 313 315 315 313 311 312 311 310 310 311 311 310 309 308 306 305 305 305 303 303 303 303 302 299 302 301 300 300 302
322 322 323 324 324 323 322 321 319 319 317 316 314 313 311 311 313 312 311 312 312 310 310 310 310 310 309 308 306 304 298 289 301 296 302 301 300 301 301 302 300 301 301
323 320 322 323 323 322 321 319 317 318 318 316 316 315 315 314 313 316 312 310 312 311 310 310 310 309 307 306 304 297 287 287 294 290 299 299 297 298 300 302 302 301 301
Wind_Speed
19 18 18 16 16 15 13 13 13 11 11 11 11 11 11 11 11 10 9 8 9 7 5 7 7 6 5 5 4 3 3 3 4 1 3 1 2 2 2 1 2 5 6
19 19 20 18 17 17 16 14 13 13 10 12 11 12 12 12 12 13 13 11 11 10 10 8 8 6 6 6 5 5 4 4 3 4 2 3 4 1 2 3 3 4 5
19 18 18 18 18 19 18 16 14 14 13 12 12 14 14 14 13 13 13 13 12 12 11 11 10 9 8 5 6 6 4 4 3 3 3 1 1 1 2 2 3 2 3
19 19 20 20 21 20 19 18 16 16 15 15 14 14 14 13 14 13 13 12 11 11 11 11 11 12 10 9 8 8 5 4 4 3 3 3 3 1 1 2 3 2 3
18 19 22 19 19 18 18 17 16 16 16 15 15 13 13 13 12 14 13 13 12 11 10 10 9 8 9 10 6 7 7 5 5 5 2 3 2 2 3 1 3 3 3
20 23 20 19 18 19 17 17 17 16 17 15 16 16 16 12 17 19 16 13 13 13 12 11 11 13 11 14 14 11 11 9 8 5 3 5 4 3 3 2 2 3 3
20 19 19 19 19 19 17 16 18 18 16 18 18 17 18 18 19 22 22 13 13 13 13 11 7 6 11 10 14 14 13 14 8 7 6 6 4 5 4 4 4 5 4
19 18 16 17 18 18 18 20 19 17 18 17 17 19 18 17 18 21 23 16 11 12 12 11 10 11 12 14 10 8 9 9 8 5 6 5 5 6 5 4 3 4 3
16 16 17 19 19 18 19 21 18 16 16 18 16 16 18 17 18 20 18 14 11 13 12 12 13 10 11 15 11 9 7 5 6 9 8 6 9 7 6 4 5 4 3
18 20 19 20 20 20 21 19 16 15 16 12 14 15 17 16 18 21 21 12 13 10 11 10 15 14 12 14 9 9 8 7 8 9 7 4 6 6 9 8 4 5 3
18 16 16 17 18 18 15 14 15 14 12 15 15 13 15 17 14 22 26 13 11 10 6 5 8 15 16 15 10 8 7 8 10 7 5 4 4 3 3 5 6 5 4
8 13 14 16 14 14 17 14 15 17 18 17 14 12 11 13 14 19 24 15 9 8 9 4 4 12 13 14 12 10 10 7 5 6 6 5 3 2 2 3 4 5 5
5 5 4 4 7 9 12 11 7 9 10 11 10 11 10 10 10 25 21 20 15 9 8 10 13 11 11 8 9 10 12 6 6 6 5 4 3 3 2 2 3 2 3
9 8 7 7 5 3 3 3 6 6 7 5 6 7 5 3 4 5 11 7 17 10 14 9 9 9 6 6 5 7 5 6 7 5 5 4 3 3 2 2 2 0 2
5 6 6 6 9 9 6 3 6 3 4 5 5 5 5 4 3 17 15 16 10 8 7 9 9 5 5 5 4 4 5 6 5 5 5 5 4 3 3 3 1 1 2
8 6 6 7 7 7 11 10 15 19 21 25 24 17 9 9 2 20 13 12 3 11 5 7 8 7 6 6 7 6 5 7 6 6 5 5 4 4 4 3 2 2 2
9 8 7 8 6 8 11 14 12 5 10 23 21 20 18 3 22 19 17 17 18 10 5 7 7 7 5 6 7 7 6 6 6 6 4 5 4 4 4 3 2 2 2
9 10 8 8 8 8 7 7 8 9 7 4 0 12 21 19 9 10 23 12 7 1 5 7 7 6 6 7 7 5 5 5 5 5 5 5 5 4 3 3 3 3 2
6 5 6 6 7 8 7 6 4 2 2 4 5 9 12 16 10 13 15 10 9 6 5 6 6 7 6 6 5 5 6 6 5 6 6 5 5 5 4 4 3 3 2
4 8 6 5 6 6 5 3 3 5 5 4 8 5 9 10 10 9 4 6 8 6 6 5 5 5 6 6 6 6 6 6 7 6 5 5 5 5 5 5 3 2 1
5 5 7 5 6 5 5 7 3 3 4 6 6 8 9 8 8 7 5 5 6 6 6 5 5 6 5 6 6 6 6 6 5 5 6 6 6 5 4 3 3 2 1
5 5 5 6 7 7 5 4 6 5 5 7 7 5 9 7 7 6 6 6 7 6 6 7 7 6 7 7 7 6 6 7 6 5 5 6 5 5 4 3 3 2 1
4 5 5 6 6 6 4 7 7 6 5 7 9 8 7 7 7 7 8 7 7 7 6 5 6 5 5 5 6 6 7 7 7 7 8 8 6 6 4 4 3 2 1
5 6 5 5 4 3 4 2 5 6 7 7 8 7 5 6 7 8 6 6 6 6 6 6 7 9 7 6 5 6 5 4 5 8 10 8 6 6 4 4 3 2 1
4 5 6 5 5 5 4 4 3 2 3 4 5 4 4 2 2 5 6 7 7 7 8 7 6 8 10 11 10 10 7 9 10 9 7 7 7 8 5 4 4 2 1
4 3 4 4 4 5 6 4 3 3 2 2 3 4 6 7 4 3 4 5 7 7 9 8 9 12 12 11 12 13 9 10 11 10 8 6 5 5 5 5 5 3 2
Wind_Direction
191 196 196 198 200 202 204 202 201 194 196 185 190 193 194 187 186 185 191 186 195 190 188 190 200 183 186 191 180 175 184 170 196 192 222 255 269 285 244 243 251 265 273
195 193 197 193 195 199 204 205 196 197 196 193 192 196 198 193 188 192 197 193 197 195 200 192 201 190 193 184 191 193 194 188 173 210 202 213 218 236 264 287 296 291 287
193 195 198 196 193 200 204 203 195 196 193 193 194 199 199 198 190 199 199 197 198 201 198 199 198 192 201 183 190 201 201 191 189 183 233 215 250 225 236 242 256 271 270
194 195 196 198 197 199 203 201 195 195 194 194 199 201 201 198 197 200 200 200 201 203 202 204 202 201 199 190 196 199 197 197 186 208 206 234 230 201 249 282 301 230 277
192 196 204 199 201 202 201 200 198 197 200 196 198 202 203 201 201 201 200 199 200 204 205 206 212 214 215 199 189 193 187 193 209 203 215 194 220 196 220 217 272 301 274
190 202 197 197 198 202 200 197 200 197 199 197 199 201 203 208 203 197 194 197 200 203 203 209 194 181 222 216 201 187 191 187 207 203 193 228 204 193 188 201 282 282 292
197 203 198 195 198 201 197 197 202 202 192 200 201 199 206 211 197 194 193 197 196 200 204 205 184 202 200 212 212 206 200 196 186 186 211 211 212 199 171 182 218 249 248
203 199 194 197 205 197 195 202 204 201 202 200 200 203 206 212 194 190 190 203 197 197 196 186 190 200 192 197 201 204 214 209 197 182 191 194 206 168 205 213 204 243 270
199 197 198 196 199 199 203 205 204 202 203 207 206 199 205 212 187 183 181 196 195 194 190 188 187 201 217 197 176 198 203 190 199 196 207 226 208 193 198 193 224 217 257
197 202 198 196 198 200 204 205 204 201 207 204 210 208 204 207 185 179 180 186 195 196 199 192 190 173 167 191 190 183 188 186 177 193 214 219 216 218 201 209 202 236 239
200 196 198 198 199 202 202 199 196 205 208 206 205 203 201 201 191 185 180 187 192 190 177 186 220 176 163 181 183 179 183 155 193 193 185 179 197 196 215 218 216 215 200
188 195 195 196 196 196 195 193 195 193 199 203 200 191 193 193 176 179 180 193 191 170 143 180 241 164 163 175 178 170 152 142 152 165 166 183 191 207 204 202 210 219 233
146 209 211 242 230 214 199 197 215 202 205 205 203 212 205 197 181 176 183 158 161 141 116 177 185 159 152 159 178 153 147 153 152 158 180 170 170 152 201 219 202 214 243
173 171 155 150 138 119 139 171 187 193 209 210 211 207 179 205 222 194 154 129 134 126 157 136 119 122 119 125 115 154 155 163 165 174 167 151 141 162 210 231 221 352 286
120 128 125 112 110 105 82 63 100 43 130 128 113 81 83 83 104 59 314 129 158 192 150 112 118 126 128 138 126 153 148 147 164 163 162 162 160 164 204 201 193 170 258
93 87 99 113 113 109 100 84 53 102 97 93 87 90 50 42 14 94 98 14 137 123 109 136 146 150 161 160 149 176 160 166 175 176 174 173 171 197 201 179 186 219 242
106 107 105 112 119 119 129 127 122 74 100 126 129 138 159 146 188 166 148 157 184 170 170 150 156 155 165 155 164 171 165 173 170 186 181 186 176 189 180 184 194 207 210
93 95 113 121 117 121 122 134 143 149 160 184 107 170 135 141 244 192 119 154 173 85 147 160 154 159 154 158 165 169 148 156 174 176 187 185 172 172 174 185 205 200 220
109 111 117 127 139 145 151 160 170 115 157 170 140 50 91 103 138 137 170 167 164 139 144 144 157 152 153 162 165 166 168 164 165 171 179 170 163 167 178 185 191 193 204
92 108 97 104 100 101 101 99 122 118 178 163 92 125 90 118 156 164 117 149 131 138 144 152 145 151 156 154 162 150 138 143 160 166 171 158 168 181 181 183 175 178 191
87 95 106 118 115 117 123 105 88 153 102 80 98 108 130 137 143 145 139 141 129 141 150 162 169 151 141 136 143 146 148 159 170 172 173 179 169 170 195 177 156 167 278
109 109 114 117 101 95 91 120 127 99 103 114 107 112 139 142 145 144 148 155 163 164 156 158 150 144 151 155 160 158 169 177 174 183 175 170 172 184 178 165 176 170 154
88 98 97 95 94 103 145 151 130 127 142 142 153 160 158 150 153 162 167 169 156 149 147 138 128 147 148 155 173 170 177 185 187 178 173 172 176 183 171 168 180 180 165
103 87 80 89 88 92 86 78 95 122 146 156 155 160 152 162 167 168 164 149 141 137 135 156 168 164 162 165 177 194 200 172 175 185 174 170 176 175 172 171 177 171 296
55 93 103 99 92 79 62 58 81 83 91 131 122 128 130 99 207 171 162 151 154 159 170 176 175 175 181 182 186 191 188 169 175 167 169 166 173 176 178 180 170 158 131
44 80 95 98 99 102 85 69 66 81 62 105 123 171 178 170 179 187 172 164 174 178 173 183 184 191 190 189 189 184 171 176 163 170 160 159 170 176 189 188 180 173 154